Date String (YYYY-MM-DD hh:mm:ss) UTC,Instrument flags,absolute air pressure of the measurement (hPa),sample flow rate (lpm),inlet stack bypass flow (lpm),air temperature of the measurement (°C),ambient temperature measured by the external sensor (°C),aerosol sample conditioner tube jacket temperature (°C),OPC LED temperature (°C),internal box temperature (°C),relative humidity of the measurement (%),span deviation,mass concentration of particles derived from Lorenz-Mie calculation of OPC scattering (μg/m³),mass concentration of particles derived from Lorenz-Mie calculation of OPC scattering (μg/m³),mass concentration of particles derived from Lorenz-Mie calculation of OPC scattering (μg/m³)
DateTimeUTC,F1_M11,P_M11,Q1_M11,Q2_M11,T1_M11,T2_M11,T3_M11,T4_M11,T5_M11,U1_M11,ZSPAN_M11,X0_M11,X2_M11,X1_M11
2024-05-22 14:00:00,SystemResetWarning,0828.1,4.99,000.00,023.9,023.2,000.0,032.0,025.6,015.0,0000.0,0006.71,0002.27,0001.78
2024-05-22 14:01:00,SystemResetWarning,0828.1,5.00,000.00,023.9,023.2,000.0,032.0,025.6,015.3,0000.0,0006.68,0002.27,0001.76
2024-05-22 14:02:00,SystemResetWarning,0828.1,5.00,000.00,023.9,023.2,000.0,032.1,025.6,015.0,0000.0,0006.80,0002.26,0001.75
2024-05-22 14:03:00,SystemResetWarning,0828.1,5.01,000.00,023.9,023.2,000.0,032.1,025.6,015.0,0000.0,0006.73,0002.21,0001.74
2024-05-22 14:04:00,SystemResetWarning,0828.1,5.00,000.00,023.9,023.2,000.0,032.1,025.6,013.8,0000.0,0006.18,0002.23,0001.75
2024-05-22 14:05:00,SystemResetWarning,0828.1,5.01,000.00,023.9,023.2,000.0,032.1,025.6,016.2,0000.0,0005.27,0002.21,0001.75
2024-05-22 14:06:00,SystemResetWarning,0828.1,5.01,000.00,023.9,023.3,000.0,032.1,025.6,016.4,0000.0,0005.19,0002.19,0001.75
2024-05-22 14:07:00,SystemResetWarning,0828.0,4.99,000.00,023.9,023.3,000.0,032.1,025.6,015.9,0000.0,0005.08,0002.17,0001.77
2024-05-22 14:08:00,SystemResetWarning,0828.0,4.99,000.00,023.9,023.3,000.0,032.1,025.6,015.2,0000.0,0004.84,0002.11,0001.77
2024-05-22 14:09:00,SystemResetWarning,0827.9,5.00,000.00,023.9,023.3,000.0,032.1,025.6,014.5,0000.0,0004.81,0002.10,0001.78
2024-05-22 14:10:00,SystemResetWarning,0827.9,5.01,000.00,024.0,023.3,000.0,032.1,025.7,014.5,0000.0,0005.42,0002.14,0001.76
2024-05-22 14:11:00,SystemResetWarning,0827.9,5.01,000.00,024.0,023.3,000.0,032.1,025.7,014.2,0000.0,0004.83,0002.10,0001.76
2024-05-22 14:12:00,SystemResetWarning,0827.8,5.01,000.00,024.0,023.3,000.0,032.1,025.7,013.6,0000.0,0003.78,0002.08,0001.76
2024-05-22 14:13:00,SystemResetWarning,0827.9,4.99,000.00,024.0,023.3,000.0,032.1,025.7,012.5,0000.0,0004.10,0002.06,0001.75
2024-05-22 14:14:00,SystemResetWarning,0827.9,5.01,000.00,024.0,023.3,000.0,032.2,025.7,013.8,0000.0,0005.17,0002.06,0001.74
2024-05-22 14:15:00,SystemResetWarning,0827.9,5.01,000.00,024.0,023.3,000.0,032.2,025.7,014.1,0000.0,0005.14,0002.03,0001.71
2024-05-22 14:16:00,SystemResetWarning,0827.9,4.99,000.00,024.0,023.3,000.0,032.2,025.7,013.4,0000.0,0006.29,0002.02,0001.70
2024-05-22 14:17:00,SystemResetWarning,0827.9,5.00,000.00,024.0,023.4,000.0,032.2,025.7,012.7,0000.0,0006.28,0002.01,0001.69
2024-05-22 14:18:00,SystemResetWarning,0827.9,5.00,000.00,024.0,023.4,000.0,032.2,025.7,013.0,0000.0,0006.33,0002.03,0001.67
2024-05-22 14:19:00,SystemResetWarning,0827.9,5.00,000.00,024.0,023.4,000.0,032.2,025.7,013.4,0000.0,0006.93,0002.01,0001.65
2024-05-22 14:20:00,SystemResetWarning,0827.9,5.00,000.00,024.0,023.4,000.0,032.2,025.8,012.7,0000.0,0007.42,0002.00,0001.65
2024-05-22 14:21:00,SystemResetWarning,0827.9,5.00,000.00,024.1,023.4,000.0,032.2,025.8,012.2,0000.0,0006.82,0001.96,0001.64
2024-05-22 14:22:00,SystemResetWarning,0827.8,5.01,000.00,024.1,023.4,000.0,032.2,025.8,012.0,0000.0,0006.80,0001.97,0001.64
2024-05-22 14:23:00,SystemResetWarning,0827.9,5.00,000.00,024.1,023.4,000.0,032.2,025.8,012.9,0000.0,0006.72,0001.94,0001.63
2024-05-22 14:24:00,SystemResetWarning,0827.8,4.99,000.00,024.1,023.4,000.0,032.2,025.8,012.6,0000.0,0005.96,0001.97,0001.63
2024-05-22 14:25:00,SystemResetWarning,0827.8,4.99,000.00,024.1,023.4,000.0,032.2,025.9,012.7,0000.0,0005.12,0001.98,0001.63
2024-05-22 14:26:00,SystemResetWarning,0827.8,5.00,000.00,024.1,023.4,000.0,032.2,025.9,014.1,0000.0,0005.13,0001.99,0001.63
2024-05-22 14:27:00,SystemResetWarning,0827.8,5.01,000.00,024.1,023.4,000.0,032.3,025.9,013.0,0000.0,0003.96,0002.00,0001.64
2024-05-22 14:28:00,SystemResetWarning,0827.9,5.01,000.00,024.1,023.4,000.0,032.3,025.9,011.9,0000.0,0003.89,0001.98,0001.64
2024-05-22 14:29:00,SystemResetWarning,0827.9,5.01,000.00,024.1,023.5,000.0,032.3,025.9,011.9,0000.0,0003.83,0001.95,0001.63
2024-05-22 14:30:00,SystemResetWarning,0827.8,4.99,000.00,024.1,023.5,000.0,032.3,025.9,011.7,0000.0,0003.35,0001.94,0001.62
2024-05-22 14:31:00,SystemResetWarning,0828.0,4.99,000.00,024.1,023.5,000.0,032.3,025.9,012.2,0000.0,0002.70,0001.95,0001.61
2024-05-22 14:32:00,SystemResetWarning,0828.0,4.99,000.00,024.1,023.5,000.0,032.3,025.9,011.8,0000.0,0002.70,0001.93,0001.61
2024-05-22 14:33:00,SystemResetWarning,0828.1,5.02,000.00,024.2,023.5,000.0,032.3,025.9,012.4,0000.0,0002.70,0001.92,0001.60
2024-05-22 14:34:00,SystemResetWarning,0828.1,5.01,000.00,024.2,023.5,000.0,032.3,025.9,014.1,0000.0,0002.81,0001.94,0001.60
2024-05-22 14:35:00,SystemResetWarning,0828.1,4.98,000.00,024.2,023.5,000.0,032.3,025.9,013.3,0000.0,0003.07,0001.97,0001.60
2024-05-22 14:36:00,SystemResetWarning,0828.1,5.00,000.00,024.2,023.5,000.0,032.3,026.0,012.6,0000.0,0004.31,0002.03,0001.61
2024-05-22 14:37:00,SystemResetWarning,0828.0,5.00,000.00,024.2,023.5,000.0,032.4,025.9,013.7,0000.0,0004.58,0002.03,0001.61
2024-05-22 14:38:00,SystemResetWarning,0828.0,5.00,000.00,024.2,023.5,000.0,032.4,025.9,014.6,0000.0,0004.70,0002.05,0001.62
2024-05-22 14:39:00,SystemResetWarning,0828.0,5.00,000.00,024.2,023.5,000.0,032.4,026.0,013.8,0000.0,0005.09,0002.09,0001.62
2024-05-22 14:40:00,SystemResetWarning,0828.1,5.00,000.00,024.2,023.5,000.0,032.4,026.0,013.7,0000.0,0005.45,0002.12,0001.64
2024-05-22 14:41:00,SystemResetWarning,0828.1,5.00,000.00,024.2,023.5,000.0,032.4,026.0,013.3,0000.0,0005.88,0002.14,0001.65
2024-05-22 14:42:00,SystemResetWarning,0828.1,5.00,000.00,024.2,023.5,000.0,032.4,026.0,013.8,0000.0,0005.91,0002.14,0001.66
2024-05-22 14:43:00,SystemResetWarning,0828.1,5.00,000.00,024.2,023.5,000.0,032.4,026.0,013.8,0000.0,0007.21,0002.17,0001.68
2024-05-22 14:44:00,SystemResetWarning,0828.1,5.00,000.00,024.2,023.5,000.0,032.4,026.0,014.1,0000.0,0007.26,0002.20,0001.70
2024-05-22 14:45:00,SystemResetWarning,0828.1,5.00,000.00,024.2,023.5,000.0,032.4,026.0,014.4,0000.0,0008.43,0002.22,0001.72
2024-05-22 14:46:00,SystemResetWarning,0828.1,5.00,000.00,024.2,023.5,000.0,032.4,026.0,014.7,0000.0,0009.48,0002.22,0001.74
2024-05-22 14:47:00,SystemResetWarning,0828.0,4.99,000.00,024.3,023.5,000.0,032.4,026.0,015.2,0000.0,0008.82,0002.18,0001.74
2024-05-22 14:48:00,SystemResetWarning,0828.1,4.99,000.00,024.3,023.6,000.0,032.4,026.0,015.3,0000.0,0008.74,0002.17,0001.74
2024-05-22 14:49:00,SystemResetWarning,0828.1,5.00,000.00,024.3,023.6,000.0,032.4,026.0,015.6,0000.0,0009.30,0002.17,0001.74
2024-05-22 14:50:00,SystemResetWarning,0828.1,5.01,000.00,024.3,023.6,000.0,032.4,026.0,015.5,0000.0,0009.42,0002.16,0001.74
2024-05-22 14:51:00,SystemResetWarning,0828.1,5.01,000.00,024.3,023.6,000.0,032.5,026.0,016.2,0000.0,0009.22,0002.15,0001.74
2024-05-22 14:52:00,SystemResetWarning,0828.0,5.00,000.00,024.3,023.6,000.0,032.5,026.0,016.0,0000.0,0009.28,0002.20,0001.75
2024-05-22 14:53:00,SystemResetWarning,0828.1,5.00,000.00,024.3,023.6,000.0,032.5,026.0,015.8,0000.0,0009.30,0002.25,0001.77
2024-05-22 14:54:00,SystemResetWarning,0828.0,5.00,000.00,024.3,023.6,000.0,032.5,026.0,015.5,0000.0,0008.84,0002.30,0001.80
2024-05-22 14:55:00,SystemResetWarning,0828.1,5.00,000.00,024.3,023.6,000.0,032.5,026.1,015.6,0000.0,0008.73,0002.34,0001.82
2024-05-22 14:56:00,SystemResetWarning,0828.1,5.00,000.00,024.3,023.6,000.0,032.5,026.1,016.5,0000.0,0008.36,0002.35,0001.82
2024-05-22 14:57:00,SystemResetWarning,0828.0,5.00,000.00,024.3,023.6,000.0,032.5,026.1,016.4,0000.0,0006.15,0002.37,0001.81
2024-05-22 14:58:00,SystemResetWarning,0828.1,5.00,000.00,024.3,023.6,000.0,032.5,026.1,016.6,0000.0,0006.28,0002.41,0001.83
2024-05-22 14:59:00,SystemResetWarning,0828.1,5.00,000.00,024.3,023.6,000.0,032.5,026.1,016.3,0000.0,0006.05,0002.41,0001.83
